contact:dominique.lefevre@mio.osupytheas.fr, maurice.libes@osupytheas.fr, didier.mallarino@osupytheas.fr
Project:EMSO http://www.emso-fr.org/EMSO-France
Depth: 2436.0 m
Title:EMSO Ligure Ouest : Data MII capteur MICROCAT
DateTime_Computer,Latitude,Longitude,Temperature,Conductivity,Pressure,DateTime_Instrument
DateTime_Computer,Latitude,Longitude,degC,S m-1,dbar,DateTime_Instrument
2020-11-17T00:01:59Z,42.805,6.029,13.3002,4.60031,2470.156,2020-11-17T02:02:56Z
2020-11-17T00:05:02Z,42.805,6.029,13.2980,4.59999,2470.171,2020-11-17T02:05:59Z
2020-11-17T00:08:05Z,42.805,6.029,13.2983,4.59996,2470.133,2020-11-17T02:09:02Z
2020-11-17T00:11:09Z,42.805,6.029,13.2989,4.60002,2470.11,2020-11-17T02:12:05Z
2020-11-17T00:14:12Z,42.805,6.029,13.2980,4.60007,2470.11,2020-11-17T02:15:08Z
2020-11-17T00:17:15Z,42.805,6.029,13.2985,4.60017,2470.11,2020-11-17T02:18:11Z
2020-11-17T00:20:18Z,42.805,6.029,13.2982,4.60014,2470.133,2020-11-17T02:21:15Z
2020-11-17T00:23:21Z,42.805,6.029,13.2988,4.60005,2470.11,2020-11-17T02:24:18Z
2020-11-17T00:26:24Z,42.805,6.029,13.2984,4.60007,2470.147,2020-11-17T02:27:21Z
2020-11-17T00:29:27Z,42.805,6.029,13.2990,4.60016,2470.133,2020-11-17T02:30:24Z
2020-11-17T00:32:30Z,42.805,6.029,13.2997,4.60025,2470.11,2020-11-17T02:33:27Z
2020-11-17T00:35:34Z,42.805,6.029,13.2985,4.60013,2470.133,2020-11-17T02:36:30Z
2020-11-17T00:38:37Z,42.805,6.029,13.2986,4.60029,2470.133,2020-11-17T02:39:33Z
2020-11-17T00:41:40Z,42.805,6.029,13.2986,4.60016,2470.11,2020-11-17T02:42:36Z
2020-11-17T00:44:43Z,42.805,6.029,13.2993,4.60022,2470.1,2020-11-17T02:45:40Z
2020-11-17T00:47:46Z,42.805,6.029,13.2994,4.60029,2470.147,2020-11-17T02:48:43Z
2020-11-17T00:50:49Z,42.805,6.029,13.2990,4.60031,2470.11,2020-11-17T02:51:46Z
2020-11-17T00:53:52Z,42.805,6.029,13.2988,4.60017,2470.124,2020-11-17T02:54:49Z
2020-11-17T00:56:55Z,42.805,6.029,13.2989,4.60018,2470.087,2020-11-17T02:57:52Z
2020-11-17T00:59:59Z,42.805,6.029,13.2991,4.60016,2470.124,2020-11-17T03:00:55Z
2020-11-17T01:03:02Z,42.805,6.029,13.2989,4.60011,2470.11,2020-11-17T03:03:58Z
2020-11-17T01:06:05Z,42.805,6.029,13.2991,4.60010,2470.1,2020-11-17T03:07:01Z
2020-11-17T01:09:08Z,42.805,6.029,13.2978,4.60005,2470.11,2020-11-17T03:10:05Z
2020-11-17T01:12:11Z,42.805,6.029,13.2981,4.59997,2470.11,2020-11-17T03:13:08Z
2020-11-17T01:15:14Z,42.805,6.029,13.2998,4.60024,2470.11,2020-11-17T03:16:11Z
2020-11-17T01:18:17Z,42.805,6.029,13.2996,4.60020,2470.11,2020-11-17T03:19:14Z
2020-11-17T01:21:20Z,42.805,6.029,13.2996,4.60024,2470.1,2020-11-17T03:22:17Z
2020-11-17T01:24:23Z,42.805,6.029,13.2995,4.60022,2470.087,2020-11-17T03:25:20Z
2020-11-17T01:27:27Z,42.805,6.029,13.3003,4.60029,2470.063,2020-11-17T03:28:23Z
2020-11-17T01:30:30Z,42.805,6.029,13.2983,4.60018,2470.1,2020-11-17T03:31:26Z
2020-11-17T01:33:33Z,42.805,6.029,13.2997,4.60020,2470.124,2020-11-17T03:34:30Z
2020-11-17T01:36:36Z,42.805,6.029,13.2998,4.60021,2470.11,2020-11-17T03:37:33Z
2020-11-17T01:39:39Z,42.805,6.029,13.2983,4.60025,2470.087,2020-11-17T03:40:36Z
2020-11-17T01:42:42Z,42.805,6.029,13.2980,4.59999,2470.053,2020-11-17T03:43:39Z
2020-11-17T01:45:45Z,42.805,6.029,13.2980,4.60013,2470.11,2020-11-17T03:46:42Z
2020-11-17T01:48:48Z,42.805,6.029,13.2998,4.60029,2470.1,2020-11-17T03:49:45Z
2020-11-17T01:51:52Z,42.805,6.029,13.2986,4.60011,2470.087,2020-11-17T03:52:48Z
2020-11-17T01:54:55Z,42.805,6.029,13.2991,4.60028,2470.11,2020-11-17T03:55:51Z
2020-11-17T01:57:58Z,42.805,6.029,13.2999,4.60024,2470.1,2020-11-17T03:58:55Z
2020-11-17T02:01:01Z,42.805,6.029,13.2980,4.59995,2470.077,2020-11-17T04:01:58Z
2020-11-17T02:04:04Z,42.805,6.029,13.2979,4.60021,2470.063,2020-11-17T04:05:01Z
2020-11-17T02:07:07Z,42.805,6.029,13.2998,4.60028,2470.087,2020-11-17T04:08:04Z
2020-11-17T02:10:10Z,42.805,6.029,13.2997,4.60027,2470.1,2020-11-17T04:11:07Z
2020-11-17T02:13:13Z,42.805,6.029,13.2989,4.60001,2470.04,2020-11-17T04:14:10Z
2020-11-17T02:16:17Z,42.805,6.029,13.2984,4.60009,2470.087,2020-11-17T04:17:13Z
2020-11-17T02:19:20Z,42.805,6.029,13.2993,4.60025,2470.077,2020-11-17T04:20:16Z
2020-11-17T02:22:23Z,42.805,6.029,13.2984,4.60005,2470.053,2020-11-17T04:23:20Z
2020-11-17T02:25:26Z,42.805,6.029,13.2983,4.59994,2470.04,2020-11-17T04:26:23Z
2020-11-17T02:28:29Z,42.805,6.029,13.2974,4.60001,2470.04,2020-11-17T04:29:26Z
2020-11-17T02:31:32Z,42.805,6.029,13.2982,4.59999,2470.077,2020-11-17T04:32:29Z
2020-11-17T02:34:35Z,42.805,6.029,13.2982,4.60023,2470.063,2020-11-17T04:35:32Z
2020-11-17T02:37:38Z,42.805,6.029,13.2984,4.60019,2470.04,2020-11-17T04:38:35Z
2020-11-17T02:40:42Z,42.805,6.029,13.3000,4.60033,2470.087,2020-11-17T04:41:38Z
2020-11-17T02:43:45Z,42.805,6.029,13.2982,4.60037,2470.063,2020-11-17T04:44:41Z
2020-11-17T02:46:48Z,42.805,6.029,13.2976,4.60009,2470.04,2020-11-17T04:47:45Z
2020-11-17T02:49:51Z,42.805,6.029,13.2982,4.59995,2470.049,2020-11-17T04:50:48Z
2020-11-17T02:52:54Z,42.805,6.029,13.2981,4.60020,2470.063,2020-11-17T04:53:51Z
2020-11-17T02:55:57Z,42.805,6.029,13.2989,4.60023,2470.053,2020-11-17T04:56:54Z
2020-11-17T02:59:00Z,42.805,6.029,13.2998,4.60024,2470.087,2020-11-17T04:59:57Z
2020-11-17T03:02:03Z,42.805,6.029,13.3004,4.60010,2470.077,2020-11-17T05:03:00Z
2020-11-17T03:05:07Z,42.805,6.029,13.2982,4.59995,2470.04,2020-11-17T05:06:03Z
2020-11-17T03:08:10Z,42.805,6.029,13.2981,4.60006,2470.077,2020-11-17T05:09:06Z
2020-11-17T03:28:08Z,42.805,6.029,13.3003,4.60031,2470.087,2020-11-17T05:29:05Z
2020-11-17T03:31:11Z,42.805,6.029,13.3005,4.60037,2470.063,2020-11-17T05:32:08Z
2020-11-17T03:34:14Z,42.805,6.029,13.2998,4.60036,2470.053,2020-11-17T05:35:11Z
2020-11-17T03:37:18Z,42.805,6.029,13.2992,4.60036,2470.1,2020-11-17T05:38:14Z
2020-11-17T03:40:21Z,42.805,6.029,13.2996,4.60050,2470.077,2020-11-17T05:41:17Z
2020-11-17T03:43:24Z,42.805,6.029,13.3021,4.60044,2470.096,2020-11-17T05:44:20Z
2020-11-17T03:46:27Z,42.805,6.029,13.3014,4.60060,2470.077,2020-11-17T05:47:24Z
2020-11-17T03:49:30Z,42.805,6.029,13.3007,4.60039,2470.077,2020-11-17T05:50:27Z
2020-11-17T03:52:33Z,42.805,6.029,13.3012,4.60026,2470.124,2020-11-17T05:53:30Z
2020-11-17T03:55:36Z,42.805,6.029,13.3005,4.60016,2470.063,2020-11-17T05:56:33Z
2020-11-17T03:58:39Z,42.805,6.029,13.2989,4.60042,2470.063,2020-11-17T05:59:36Z
2020-11-17T04:01:42Z,42.805,6.029,13.3018,4.60048,2470.063,2020-11-17T06:02:39Z
2020-11-17T04:04:46Z,42.805,6.029,13.2996,4.60045,2470.1,2020-11-17T06:05:42Z
2020-11-17T04:07:49Z,42.805,6.029,13.3022,4.60043,2470.1,2020-11-17T06:08:45Z
2020-11-17T04:10:52Z,42.805,6.029,13.3004,4.60044,2470.087,2020-11-17T06:11:49Z
2020-11-17T04:13:55Z,42.805,6.029,13.3010,4.60043,2470.11,2020-11-17T06:14:52Z
2020-11-17T04:16:58Z,42.805,6.029,13.3004,4.60041,2470.124,2020-11-17T06:17:55Z
2020-11-17T04:20:01Z,42.805,6.029,13.2986,4.60050,2470.11,2020-11-17T06:20:58Z
2020-11-17T04:23:04Z,42.805,6.029,13.3011,4.60049,2470.124,2020-11-17T06:24:01Z
2020-11-17T04:26:07Z,42.805,6.029,13.3019,4.60054,2470.124,2020-11-17T06:27:04Z
2020-11-17T04:29:11Z,42.805,6.029,13.3019,4.60040,2470.087,2020-11-17T06:30:07Z
2020-11-17T04:32:14Z,42.805,6.029,13.3007,4.60075,2470.147,2020-11-17T06:33:10Z
2020-11-17T04:35:17Z,42.805,6.029,13.3009,4.60037,2470.096,2020-11-17T06:36:14Z
2020-11-17T04:38:20Z,42.805,6.029,13.3004,4.60048,2470.133,2020-11-17T06:39:17Z
2020-11-17T04:41:23Z,42.805,6.029,13.3007,4.60066,2470.171,2020-11-17T06:42:20Z
2020-11-17T04:44:26Z,42.805,6.029,13.3039,4.60061,2470.147,2020-11-17T06:45:23Z
2020-11-17T04:47:29Z,42.805,6.029,13.3020,4.60042,2470.147,2020-11-17T06:48:26Z
2020-11-17T04:50:32Z,42.805,6.029,13.3011,4.60064,2470.18,2020-11-17T06:51:29Z
2020-11-17T04:53:36Z,42.805,6.029,13.2991,4.60056,2470.124,2020-11-17T06:54:32Z
2020-11-17T04:56:39Z,42.805,6.029,13.2986,4.60026,2470.133,2020-11-17T06:57:35Z
2020-11-17T04:59:42Z,42.805,6.029,13.2998,4.60016,2470.156,2020-11-17T07:00:38Z
2020-11-17T05:02:45Z,42.805,6.029,13.2998,4.60014,2470.171,2020-11-17T07:03:42Z
2020-11-17T05:05:48Z,42.805,6.029,13.2991,4.60027,2470.133,2020-11-17T07:06:45Z
2020-11-17T05:08:51Z,42.805,6.029,13.3009,4.60043,2470.156,2020-11-17T07:09:48Z
2020-11-17T05:11:54Z,42.805,6.029,13.3009,4.60040,2470.156,2020-11-17T07:12:51Z
2020-11-17T05:14:57Z,42.805,6.029,13.3006,4.60022,2470.194,2020-11-17T07:15:54Z
2020-11-17T05:18:01Z,42.805,6.029,13.3022,4.60005,2470.194,2020-11-17T07:18:57Z
2020-11-17T05:21:04Z,42.805,6.029,13.3005,4.60004,2470.18,2020-11-17T07:22:00Z
2020-11-17T05:24:07Z,42.805,6.029,13.2999,4.60002,2470.194,2020-11-17T07:25:03Z
2020-11-17T05:27:10Z,42.805,6.029,13.2996,4.60014,2470.156,2020-11-17T07:28:07Z
2020-11-17T05:30:13Z,42.805,6.029,13.2994,4.60017,2470.217,2020-11-17T07:31:10Z
2020-11-17T05:33:16Z,42.805,6.029,13.3009,4.60029,2470.217,2020-11-17T07:34:13Z
2020-11-17T05:36:19Z,42.805,6.029,13.3030,4.60041,2470.203,2020-11-17T07:37:16Z
2020-11-17T05:39:22Z,42.805,6.029,13.3006,4.60021,2470.217,2020-11-17T07:40:19Z
2020-11-17T05:42:25Z,42.805,6.029,13.3013,4.60010,2470.217,2020-11-17T07:43:22Z
2020-11-17T05:45:29Z,42.805,6.029,13.2998,4.60021,2470.18,2020-11-17T07:46:25Z
2020-11-17T05:48:32Z,42.805,6.029,13.2993,4.60020,2470.227,2020-11-17T07:49:28Z
2020-11-17T05:51:35Z,42.805,6.029,13.3006,4.60019,2470.203,2020-11-17T07:52:32Z
2020-11-17T05:54:38Z,42.805,6.029,13.2996,4.60018,2470.264,2020-11-17T07:55:35Z
2020-11-17T05:57:41Z,42.805,6.029,13.3013,4.60021,2470.217,2020-11-17T07:58:38Z
2020-11-17T06:00:44Z,42.805,6.029,13.3014,4.60005,2470.227,2020-11-17T08:01:41Z
2020-11-17T06:03:47Z,42.805,6.029,13.3014,4.60035,2470.273,2020-11-17T08:04:44Z
2020-11-17T06:06:50Z,42.805,6.029,13.3006,4.60055,2470.24,2020-11-17T08:07:47Z
2020-11-17T06:09:54Z,42.805,6.029,13.3024,4.60040,2470.287,2020-11-17T08:10:50Z
2020-11-17T06:12:57Z,42.805,6.029,13.3029,4.60050,2470.264,2020-11-17T08:13:53Z
2020-11-17T06:16:00Z,42.805,6.029,13.3033,4.60029,2470.25,2020-11-17T08:16:57Z
2020-11-17T06:19:03Z,42.805,6.029,13.3034,4.60054,2470.287,2020-11-17T08:20:00Z
2020-11-17T06:22:06Z,42.805,6.029,13.3030,4.60019,2470.25,2020-11-17T08:23:03Z
2020-11-17T06:25:09Z,42.805,6.029,13.3018,4.60033,2470.273,2020-11-17T08:26:06Z
2020-11-17T06:28:12Z,42.805,6.029,13.3016,4.60031,2470.264,2020-11-17T08:29:09Z
2020-11-17T06:31:15Z,42.805,6.029,13.3021,4.59999,2470.31,2020-11-17T08:32:12Z
2020-11-17T06:34:19Z,42.805,6.029,13.3004,4.60019,2470.25,2020-11-17T08:35:15Z
2020-11-17T06:37:22Z,42.805,6.029,13.2983,4.60006,2470.287,2020-11-17T08:38:18Z
2020-11-17T06:40:25Z,42.805,6.029,13.3029,4.60058,2470.334,2020-11-17T08:41:22Z
2020-11-17T06:43:28Z,42.805,6.029,13.3009,4.60013,2470.287,2020-11-17T08:44:25Z
2020-11-17T06:46:31Z,42.805,6.029,13.3010,4.60020,2470.31,2020-11-17T08:47:28Z
2020-11-17T06:49:34Z,42.805,6.029,13.2993,4.60003,2470.297,2020-11-17T08:50:31Z
2020-11-17T06:52:37Z,42.805,6.029,13.3005,4.59990,2470.31,2020-11-17T08:53:34Z
2020-11-17T06:55:40Z,42.805,6.029,13.3009,4.60009,2470.32,2020-11-17T08:56:37Z
2020-11-17T06:58:44Z,42.805,6.029,13.3004,4.59999,2470.297,2020-11-17T08:59:40Z
2020-11-17T07:01:47Z,42.805,6.029,13.3012,4.60044,2470.334,2020-11-17T09:02:43Z
2020-11-17T07:04:50Z,42.805,6.029,13.3010,4.60045,2470.32,2020-11-17T09:05:47Z
2020-11-17T07:07:53Z,42.805,6.029,13.3029,4.60079,2470.31,2020-11-17T09:08:50Z
2020-11-17T07:10:56Z,42.805,6.029,13.3044,4.60072,2470.297,2020-11-17T09:11:53Z
2020-11-17T07:13:59Z,42.805,6.029,13.3037,4.60071,2470.334,2020-11-17T09:14:56Z
2020-11-17T07:17:02Z,42.805,6.029,13.3047,4.60060,2470.32,2020-11-17T09:17:59Z
2020-11-17T07:20:05Z,42.805,6.029,13.3021,4.60032,2470.32,2020-11-17T09:21:02Z
2020-11-17T07:23:09Z,42.805,6.029,13.3040,4.60060,2470.306,2020-11-17T09:24:05Z
2020-11-17T07:26:12Z,42.805,6.029,13.2991,4.60021,2470.334,2020-11-17T09:27:08Z
2020-11-17T07:29:15Z,42.805,6.029,13.3007,4.60057,2470.343,2020-11-17T09:30:11Z
2020-11-17T07:32:18Z,42.805,6.029,13.3017,4.60050,2470.32,2020-11-17T09:33:15Z
2020-11-17T07:35:21Z,42.805,6.029,13.3012,4.60031,2470.357,2020-11-17T09:36:18Z
2020-11-17T07:38:24Z,42.805,6.029,13.3024,4.60015,2470.357,2020-11-17T09:39:21Z
2020-11-17T07:41:27Z,42.805,6.029,13.3015,4.60064,2470.357,2020-11-17T09:42:24Z
2020-11-17T07:44:30Z,42.805,6.029,13.3002,4.60059,2470.343,2020-11-17T09:45:27Z
2020-11-17T07:47:34Z,42.805,6.029,13.3015,4.60060,2470.347,2020-11-17T09:48:30Z
2020-11-17T07:50:37Z,42.805,6.029,13.3027,4.60039,2470.38,2020-11-17T09:51:33Z
2020-11-17T07:53:40Z,42.805,6.029,13.3031,4.60024,2470.343,2020-11-17T09:54:36Z
2020-11-17T07:56:43Z,42.805,6.029,13.3021,4.60057,2470.343,2020-11-17T09:57:40Z
2020-11-17T07:59:46Z,42.805,6.029,13.3009,4.60086,2470.343,2020-11-17T10:00:43Z
2020-11-17T08:02:49Z,42.805,6.029,13.3034,4.60049,2470.334,2020-11-17T10:03:46Z
2020-11-17T08:05:52Z,42.805,6.029,13.3010,4.60053,2470.38,2020-11-17T10:06:49Z
2020-11-17T08:08:55Z,42.805,6.029,13.2993,4.60046,2470.366,2020-11-17T10:09:52Z
2020-11-17T08:11:59Z,42.805,6.029,13.3015,4.60034,2470.343,2020-11-17T10:12:55Z
2020-11-17T08:15:02Z,42.805,6.029,13.3006,4.60044,2470.357,2020-11-17T10:15:58Z
2020-11-17T08:18:05Z,42.805,6.029,13.3011,4.60049,2470.404,2020-11-17T10:19:02Z
2020-11-17T08:21:08Z,42.805,6.029,13.3009,4.60062,2470.343,2020-11-17T10:22:05Z
2020-11-17T08:24:11Z,42.805,6.029,13.2998,4.60015,2470.366,2020-11-17T10:25:08Z
2020-11-17T08:27:14Z,42.805,6.029,13.3021,4.60051,2470.38,2020-11-17T10:28:11Z
2020-11-17T08:30:17Z,42.805,6.029,13.3011,4.60046,2470.357,2020-11-17T10:31:14Z
2020-11-17T08:33:20Z,42.805,6.029,13.3016,4.60057,2470.343,2020-11-17T10:34:17Z
2020-11-17T08:36:24Z,42.805,6.029,13.2986,4.60057,2470.343,2020-11-17T10:37:20Z
2020-11-17T08:39:27Z,42.805,6.029,13.3018,4.60051,2470.334,2020-11-17T10:40:23Z
2020-11-17T08:42:30Z,42.805,6.029,13.3024,4.60075,2470.343,2020-11-17T10:43:27Z
2020-11-17T08:45:33Z,42.805,6.029,13.3032,4.60060,2470.343,2020-11-17T10:46:30Z
2020-11-17T08:48:36Z,42.805,6.029,13.3012,4.60032,2470.366,2020-11-17T10:49:33Z
2020-11-17T08:51:39Z,42.805,6.029,13.3015,4.60044,2470.343,2020-11-17T10:52:36Z
2020-11-17T08:54:42Z,42.805,6.029,13.3009,4.60013,2470.343,2020-11-17T10:55:39Z
2020-11-17T08:57:45Z,42.805,6.029,13.2994,4.60026,2470.366,2020-11-17T10:58:42Z
2020-11-17T09:00:49Z,42.805,6.029,13.2990,4.60059,2470.38,2020-11-17T11:01:45Z
2020-11-17T09:03:52Z,42.805,6.029,13.3014,4.60052,2470.343,2020-11-17T11:04:48Z
2020-11-17T09:06:55Z,42.805,6.029,13.3009,4.60046,2470.38,2020-11-17T11:07:52Z
2020-11-17T09:09:58Z,42.805,6.029,13.3014,4.60040,2470.38,2020-11-17T11:10:55Z
2020-11-17T09:13:01Z,42.805,6.029,13.3003,4.60057,2470.357,2020-11-17T11:13:58Z
2020-11-17T09:16:04Z,42.805,6.029,13.3015,4.60054,2470.343,2020-11-17T11:17:01Z
2020-11-17T09:19:07Z,42.805,6.029,13.3013,4.60042,2470.38,2020-11-17T11:20:04Z
2020-11-17T09:22:10Z,42.805,6.029,13.3019,4.60031,2470.357,2020-11-17T11:23:07Z
2020-11-17T09:25:14Z,42.805,6.029,13.3007,4.60034,2470.334,2020-11-17T11:26:10Z
2020-11-17T09:28:17Z,42.805,6.029,13.2991,4.60049,2470.366,2020-11-17T11:29:13Z
2020-11-17T09:31:20Z,42.805,6.029,13.2987,4.60020,2470.343,2020-11-17T11:32:17Z
2020-11-17T09:34:23Z,42.805,6.029,13.3008,4.60048,2470.343,2020-11-17T11:35:20Z
2020-11-17T09:37:26Z,42.805,6.029,13.3006,4.60031,2470.357,2020-11-17T11:38:23Z
2020-11-17T09:40:29Z,42.805,6.029,13.3006,4.60035,2470.343,2020-11-17T11:41:26Z
2020-11-17T09:43:32Z,42.805,6.029,13.2989,4.60055,2470.343,2020-11-17T11:44:29Z
2020-11-17T09:46:36Z,42.805,6.029,13.3003,4.60044,2470.366,2020-11-17T11:47:32Z
2020-11-17T09:49:39Z,42.805,6.029,13.2996,4.60045,2470.32,2020-11-17T11:50:35Z
2020-11-17T09:52:42Z,42.805,6.029,13.2994,4.60027,2470.32,2020-11-17T11:53:38Z
2020-11-17T09:55:45Z,42.805,6.029,13.2982,4.60011,2470.32,2020-11-17T11:56:42Z
2020-11-17T09:58:48Z,42.805,6.029,13.2993,4.60033,2470.357,2020-11-17T11:59:45Z
2020-11-17T10:01:51Z,42.805,6.029,13.2997,4.60033,2470.343,2020-11-17T12:02:48Z
2020-11-17T10:04:54Z,42.805,6.029,13.2996,4.60020,2470.357,2020-11-17T12:05:51Z
2020-11-17T10:07:57Z,42.805,6.029,13.2986,4.60024,2470.32,2020-11-17T12:08:54Z
2020-11-17T10:11:01Z,42.805,6.029,13.2993,4.60016,2470.297,2020-11-17T12:11:57Z
2020-11-17T10:14:04Z,42.805,6.029,13.2995,4.60020,2470.32,2020-11-17T12:15:00Z
2020-11-17T10:17:07Z,42.805,6.029,13.2986,4.60019,2470.31,2020-11-17T12:18:03Z
2020-11-17T10:20:10Z,42.805,6.029,13.2990,4.60026,2470.32,2020-11-17T12:21:07Z
2020-11-17T10:23:13Z,42.805,6.029,13.2987,4.60031,2470.32,2020-11-17T12:24:10Z
2020-11-17T10:26:16Z,42.805,6.029,13.2988,4.60020,2470.334,2020-11-17T12:27:13Z
2020-11-17T10:29:19Z,42.805,6.029,13.2993,4.60035,2470.273,2020-11-17T12:30:16Z
2020-11-17T10:32:22Z,42.805,6.029,13.3001,4.60033,2470.32,2020-11-17T12:33:19Z
2020-11-17T10:35:26Z,42.805,6.029,13.3006,4.60042,2470.287,2020-11-17T12:36:22Z
2020-11-17T10:38:29Z,42.805,6.029,13.2983,4.60010,2470.32,2020-11-17T12:39:25Z
2020-11-17T10:41:32Z,42.805,6.029,13.2984,4.60019,2470.334,2020-11-17T12:42:29Z
2020-11-17T10:44:35Z,42.805,6.029,13.2983,4.60026,2470.31,2020-11-17T12:45:32Z
2020-11-17T10:47:38Z,42.805,6.029,13.2985,4.60014,2470.334,2020-11-17T12:48:35Z
2020-11-17T10:50:41Z,42.805,6.029,13.2990,4.60021,2470.273,2020-11-17T12:51:38Z
2020-11-17T10:53:44Z,42.805,6.029,13.2984,4.60014,2470.273,2020-11-17T12:54:41Z
2020-11-17T10:56:47Z,42.805,6.029,13.2984,4.60011,2470.297,2020-11-17T12:57:44Z
2020-11-17T10:59:51Z,42.805,6.029,13.2991,4.60028,2470.273,2020-11-17T13:00:47Z
2020-11-17T11:02:54Z,42.805,6.029,13.2990,4.60035,2470.297,2020-11-17T13:03:50Z
2020-11-17T11:05:57Z,42.805,6.029,13.3000,4.60044,2470.273,2020-11-17T13:06:54Z
2020-11-17T11:09:00Z,42.805,6.029,13.2986,4.60039,2470.273,2020-11-17T13:09:57Z
2020-11-17T11:12:03Z,42.805,6.029,13.2987,4.60037,2470.297,2020-11-17T13:13:00Z
2020-11-17T11:15:06Z,42.805,6.029,13.2996,4.60042,2470.31,2020-11-17T13:16:03Z
2020-11-17T11:18:09Z,42.805,6.029,13.3005,4.60041,2470.273,2020-11-17T13:19:06Z
2020-11-17T11:21:12Z,42.805,6.029,13.2985,4.60021,2470.287,2020-11-17T13:22:09Z
2020-11-17T11:24:16Z,42.805,6.029,13.2999,4.60031,2470.264,2020-11-17T13:25:12Z
2020-11-17T11:27:19Z,42.805,6.029,13.2990,4.60022,2470.287,2020-11-17T13:28:15Z
2020-11-17T11:30:22Z,42.805,6.029,13.3007,4.60022,2470.25,2020-11-17T13:31:19Z
2020-11-17T11:33:25Z,42.805,6.029,13.3016,4.60018,2470.31,2020-11-17T13:34:22Z
2020-11-17T11:36:28Z,42.805,6.029,13.2991,4.60021,2470.273,2020-11-17T13:37:25Z
2020-11-17T11:39:31Z,42.805,6.029,13.2990,4.60048,2470.287,2020-11-17T13:40:28Z
2020-11-17T11:42:34Z,42.805,6.029,13.2979,4.60010,2470.227,2020-11-17T13:43:31Z
2020-11-17T11:45:37Z,42.805,6.029,13.2983,4.60016,2470.264,2020-11-17T13:46:34Z
2020-11-17T11:48:41Z,42.805,6.029,13.2982,4.60046,2470.264,2020-11-17T13:49:37Z
2020-11-17T11:51:44Z,42.805,6.029,13.2991,4.60041,2470.273,2020-11-17T13:52:40Z
2020-11-17T11:54:47Z,42.805,6.029,13.2989,4.60016,2470.25,2020-11-17T13:55:44Z
2020-11-17T11:57:50Z,42.805,6.029,13.2985,4.60010,2470.217,2020-11-17T13:58:47Z
2020-11-17T12:00:53Z,42.805,6.029,13.2984,4.60013,2470.25,2020-11-17T14:01:50Z
2020-11-17T12:03:56Z,42.805,6.029,13.2984,4.60016,2470.24,2020-11-17T14:04:53Z
2020-11-17T12:06:59Z,42.805,6.029,13.2991,4.60014,2470.24,2020-11-17T14:07:56Z
2020-11-17T12:10:02Z,42.805,6.029,13.2990,4.60042,2470.25,2020-11-17T14:10:59Z
2020-11-17T12:13:06Z,42.805,6.029,13.2991,4.60008,2470.287,2020-11-17T14:14:02Z
2020-11-17T12:16:09Z,42.805,6.029,13.2985,4.60011,2470.25,2020-11-17T14:17:05Z
2020-11-17T12:19:12Z,42.805,6.029,13.2989,4.60001,2470.203,2020-11-17T14:20:09Z
2020-11-17T12:22:15Z,42.805,6.029,13.2983,4.60003,2470.227,2020-11-17T14:23:12Z
2020-11-17T12:25:18Z,42.805,6.029,13.2985,4.60029,2470.25,2020-11-17T14:26:15Z
2020-11-17T12:28:21Z,42.805,6.029,13.2988,4.60028,2470.227,2020-11-17T14:29:18Z
2020-11-17T12:31:24Z,42.805,6.029,13.2979,4.60004,2470.203,2020-11-17T14:32:21Z
2020-11-17T12:34:27Z,42.805,6.029,13.2980,4.60003,2470.227,2020-11-17T14:35:24Z
2020-11-17T12:37:31Z,42.805,6.029,13.2986,4.60019,2470.227,2020-11-17T14:38:27Z
2020-11-17T12:40:34Z,42.805,6.029,13.2988,4.60011,2470.217,2020-11-17T14:41:30Z
2020-11-17T12:43:37Z,42.805,6.029,13.2989,4.60008,2470.203,2020-11-17T14:44:34Z
2020-11-17T12:46:40Z,42.805,6.029,13.2990,4.60006,2470.203,2020-11-17T14:47:37Z
2020-11-17T12:49:43Z,42.805,6.029,13.2987,4.60009,2470.194,2020-11-17T14:50:40Z
2020-11-17T12:52:46Z,42.805,6.029,13.2992,4.60014,2470.217,2020-11-17T14:53:43Z
2020-11-17T12:55:49Z,42.805,6.029,13.2981,4.60009,2470.25,2020-11-17T14:56:46Z
2020-11-17T12:58:52Z,42.805,6.029,13.2987,4.60011,2470.18,2020-11-17T14:59:49Z
2020-11-17T13:01:56Z,42.805,6.029,13.2991,4.60013,2470.203,2020-11-17T15:02:52Z
2020-11-17T13:04:59Z,42.805,6.029,13.2982,4.60017,2470.217,2020-11-17T15:05:55Z
2020-11-17T13:08:02Z,42.805,6.029,13.2991,4.60016,2470.18,2020-11-17T15:08:59Z
2020-11-17T13:11:05Z,42.805,6.029,13.2989,4.60021,2470.203,2020-11-17T15:12:02Z
2020-11-17T13:14:08Z,42.805,6.029,13.2980,4.60016,2470.18,2020-11-17T15:15:05Z
2020-11-17T13:17:11Z,42.805,6.029,13.2993,4.60002,2470.18,2020-11-17T15:18:08Z
2020-11-17T13:20:14Z,42.805,6.029,13.2990,4.60020,2470.203,2020-11-17T15:21:11Z
2020-11-17T13:23:17Z,42.805,6.029,13.2991,4.60012,2470.18,2020-11-17T15:24:14Z
2020-11-17T13:26:21Z,42.805,6.029,13.2983,4.60009,2470.156,2020-11-17T15:27:17Z
2020-11-17T13:29:24Z,42.805,6.029,13.2990,4.60029,2470.171,2020-11-17T15:30:20Z
2020-11-17T13:32:27Z,42.805,6.029,13.2984,4.60040,2470.156,2020-11-17T15:33:24Z
2020-11-17T13:35:30Z,42.805,6.029,13.2992,4.60023,2470.171,2020-11-17T15:36:27Z
2020-11-17T13:38:33Z,42.805,6.029,13.2990,4.60016,2470.133,2020-11-17T15:39:30Z
2020-11-17T13:41:36Z,42.805,6.029,13.2982,4.60015,2470.194,2020-11-17T15:42:33Z
2020-11-17T13:44:39Z,42.805,6.029,13.2989,4.60009,2470.18,2020-11-17T15:45:36Z
2020-11-17T13:47:43Z,42.805,6.029,13.2986,4.59996,2470.156,2020-11-17T15:48:39Z
2020-11-17T13:50:46Z,42.805,6.029,13.2983,4.60014,2470.156,2020-11-17T15:51:42Z
2020-11-17T13:53:49Z,42.805,6.029,13.2987,4.60039,2470.147,2020-11-17T15:54:45Z
2020-11-17T13:56:52Z,42.805,6.029,13.2995,4.60019,2470.133,2020-11-17T15:57:49Z
2020-11-17T13:59:55Z,42.805,6.029,13.2983,4.60008,2470.147,2020-11-17T16:00:52Z
2020-11-17T14:02:58Z,42.805,6.029,13.2986,4.60000,2470.133,2020-11-17T16:03:55Z
2020-11-17T14:06:01Z,42.805,6.029,13.2983,4.60003,2470.156,2020-11-17T16:06:58Z
2020-11-17T14:09:04Z,42.805,6.029,13.2980,4.60006,2470.147,2020-11-17T16:10:01Z
2020-11-17T14:12:08Z,42.805,6.029,13.2986,4.60015,2470.143,2020-11-17T16:13:04Z
2020-11-17T14:15:11Z,42.805,6.029,13.2983,4.60009,2470.133,2020-11-17T16:16:07Z
2020-11-17T14:18:14Z,42.805,6.029,13.2983,4.60012,2470.133,2020-11-17T16:19:10Z
2020-11-17T14:21:17Z,42.805,6.029,13.2990,4.60013,2470.133,2020-11-17T16:22:14Z
2020-11-17T14:24:20Z,42.805,6.029,13.2976,4.60014,2470.147,2020-11-17T16:25:17Z
2020-11-17T14:27:23Z,42.805,6.029,13.2988,4.59993,2470.133,2020-11-17T16:28:20Z
2020-11-17T14:30:26Z,42.805,6.029,13.2983,4.60044,2470.124,2020-11-17T16:31:23Z
2020-11-17T14:33:29Z,42.805,6.029,13.2987,4.60045,2470.133,2020-11-17T16:34:26Z
2020-11-17T14:36:33Z,42.805,6.029,13.2996,4.60046,2470.133,2020-11-17T16:37:29Z
2020-11-17T14:39:36Z,42.805,6.029,13.2998,4.60053,2470.133,2020-11-17T16:40:32Z
2020-11-17T14:42:39Z,42.805,6.029,13.2999,4.60017,2470.11,2020-11-17T16:43:36Z
2020-11-17T14:45:42Z,42.805,6.029,13.2990,4.60042,2470.133,2020-11-17T16:46:39Z
2020-11-17T14:48:45Z,42.805,6.029,13.2981,4.60026,2470.171,2020-11-17T16:49:42Z
2020-11-17T14:51:48Z,42.805,6.029,13.2999,4.60020,2470.147,2020-11-17T16:52:45Z
2020-11-17T14:54:51Z,42.805,6.029,13.2979,4.60011,2470.147,2020-11-17T16:55:48Z
2020-11-17T14:57:54Z,42.805,6.029,13.2985,4.60035,2470.124,2020-11-17T16:58:51Z
2020-11-17T15:00:58Z,42.805,6.029,13.2986,4.60018,2470.124,2020-11-17T17:01:54Z
2020-11-17T15:04:01Z,42.805,6.029,13.2983,4.60014,2470.133,2020-11-17T17:04:57Z
2020-11-17T15:07:04Z,42.805,6.029,13.2985,4.60026,2470.1,2020-11-17T17:08:01Z
2020-11-17T15:10:07Z,42.805,6.029,13.2993,4.59996,2470.11,2020-11-17T17:11:04Z
2020-11-17T15:13:10Z,42.805,6.029,13.2982,4.60001,2470.11,2020-11-17T17:14:07Z
2020-11-17T15:16:13Z,42.805,6.029,13.2983,4.60024,2470.1,2020-11-17T17:17:10Z
2020-11-17T15:19:16Z,42.805,6.029,13.2982,4.60013,2470.133,2020-11-17T17:20:13Z